Thedford, NE

11:59 PM CDT on July 27, 2017 (GMT -0500)
Thedford

Weather History for KTIF - July, 2012

Change the Weather History Date:

Saturday, July 7, 2012

  Actual Average (KANW) Record (KANW)
Temperature  
Mean Temperature 74 °F -  
Max Temperature 87 °F 82 °F 100 °F (2007)
Min Temperature 63 °F 59 °F 50 °F (2004)
Cooling Degree Days 10    
Growing Degree Days 24 (Base 50)    
Moisture  
Dew Point 58 °F    
Average Humidity 59    
Maximum Humidity 84    
Minimum Humidity 34    
Precipitation  
Precipitation 0.00 in - - ()
Sea Level Pressure  
Sea Level Pressure 30.21 in    
Wind  
Wind Speed 11 mph (NNE)    
Max Wind Speed 16 mph    
Max Gust Speed 23 mph    
Visibility 10 miles    
Events Thunderstorm    
Averages and records for this station are not official NWS values.
T = Trace of Precipitation, MM = Missing Value Source: NWS Daily Summary

Daily Weather History Graph

Daily Weather History Graph

Search for Another Location

Airport or City:

Trip Planner

Search our weather history database for the weather conditions in past years. The results will help you decide how hot, cold, wet, or windy it might be!

Date:

Astronomy

Jul. 07, 2012 Rise Set
Actual Time 6:14 AM CDT 9:19 PM CDT
Civil Twilight 5:40 AM CDT 9:53 PM CDT
Nautical Twilight 4:57 AM CDT 10:36 PM CDT
Astronomical Twilight 4:05 AM CDT 11:27 PM CDT
Moon 11:34 PM CDT (7/7) 10:46 AM CDT (7/7)
Length of Visible Light 16h 12m
Length of Day
15h 05m
Waning Gibbous, 81% of the Moon is Illuminated
Jul 7
Waning Gibbous
Jul 10
Last Quarter
Jul 18
New
Jul 26
First Quarter
Aug 1
Full

Hourly Weather History & Observations

Time (CDT) Temp. Heat Index Dew Point Humidity Pressure Visibility Wind Dir Wind Speed Gust Speed Precip Events Conditions
12:15 AM 68.9 °F - 60.1 °F 73% 30.17 in 10.0 mi North 9.2 mph - N/A   Clear
12:35 AM 68.2 °F - 60.1 °F 75% 30.17 in 10.0 mi North 8.1 mph - N/A   Clear
12:55 AM 67.8 °F - 59.9 °F 76% 30.17 in 10.0 mi North 10.4 mph - N/A   Clear
1:15 AM 67.3 °F - 59.5 °F 76% 30.18 in 10.0 mi North 12.7 mph 17.3 mph N/A   Clear
1:35 AM 67.1 °F - 59.5 °F 77% 30.18 in 10.0 mi North 10.4 mph - N/A Thunderstorm Scattered Clouds
1:55 AM 66.6 °F - 59.4 °F 78% 30.19 in 10.0 mi North 10.4 mph - N/A   Clear
2:15 AM 66.2 °F - 59.5 °F 79% 30.20 in 10.0 mi NW 9.2 mph - N/A   Scattered Clouds
2:35 AM 66.0 °F - 59.9 °F 81% 30.19 in 10.0 mi NNW 9.2 mph - N/A   Scattered Clouds
2:55 AM 66.2 °F - 59.9 °F 80% 30.17 in 10.0 mi NNE 10.4 mph 16.1 mph N/A   Clear
3:15 AM 65.8 °F - 59.9 °F 81% 30.17 in 10.0 mi NNE 11.5 mph 17.3 mph N/A   Clear
3:35 AM 65.8 °F - 59.9 °F 81% 30.17 in 10.0 mi NNE 10.4 mph - N/A   Scattered Clouds
3:55 AM 65.8 °F - 59.9 °F 81% 30.19 in 10.0 mi North 10.4 mph - N/A   Mostly Cloudy
4:15 AM 65.7 °F - 59.5 °F 81% 30.19 in 10.0 mi North 11.5 mph 18.4 mph N/A   Mostly Cloudy
4:35 AM 65.1 °F - 58.6 °F 79% 30.21 in 10.0 mi NNW 12.7 mph 21.9 mph N/A   Scattered Clouds
4:55 AM 64.6 °F - 59.0 °F 82% 30.24 in 10.0 mi NW 10.4 mph - N/A   Mostly Cloudy
5:15 AM 65.5 °F - 59.0 °F 80% 30.25 in 10.0 mi NW 16.1 mph 23.0 mph N/A   Overcast
5:35 AM 64.8 °F - 58.8 °F 81% 30.23 in 10.0 mi NNW 13.8 mph 20.7 mph N/A   Mostly Cloudy
5:55 AM 64.4 °F - 58.1 °F 80% 30.23 in 10.0 mi North 12.7 mph 20.7 mph N/A   Mostly Cloudy
6:15 AM 63.9 °F - 58.1 °F 81% 30.23 in 10.0 mi North 8.1 mph 17.3 mph N/A   Overcast
6:55 AM 63.1 °F - 58.1 °F 84% 30.23 in 10.0 mi North 4.6 mph - N/A   Clear
7:15 AM 63.9 °F - 58.1 °F 81% 30.22 in 10.0 mi North 8.1 mph - N/A   Scattered Clouds
7:35 AM 64.8 °F - 58.1 °F 79% 30.23 in 10.0 mi North 10.4 mph - N/A   Mostly Cloudy
7:55 AM 65.5 °F - 58.1 °F 77% 30.23 in 10.0 mi NNE 10.4 mph - N/A   Mostly Cloudy
8:15 AM 65.5 °F - 58.1 °F 77% 30.23 in 10.0 mi NNE 12.7 mph 18.4 mph N/A   Scattered Clouds
8:35 AM 66.6 °F - 58.1 °F 74% 30.22 in 10.0 mi NNE 15.0 mph - N/A   Mostly Cloudy
8:55 AM 68.2 °F - 58.5 °F 71% 30.22 in 10.0 mi North 10.4 mph 16.1 mph N/A   Scattered Clouds
9:15 AM 69.4 °F - 58.5 °F 68% 30.22 in 10.0 mi NE 15.0 mph 20.7 mph N/A   Scattered Clouds
9:35 AM 70.3 °F - 58.5 °F 66% 30.23 in 10.0 mi NNE 13.8 mph - N/A   Clear
9:55 AM 71.6 °F - 58.8 °F 64% 30.24 in 10.0 mi NE 9.2 mph - N/A   Scattered Clouds
10:15 AM 72.3 °F - 58.6 °F 62% 30.24 in 10.0 mi NNE 10.4 mph 18.4 mph N/A   Scattered Clouds
10:35 AM 73.8 °F - 58.3 °F 58% 30.23 in 10.0 mi NNE 10.4 mph 19.6 mph N/A   Clear
10:55 AM 74.7 °F - 58.5 °F 57% 30.25 in 10.0 mi North 10.4 mph 17.3 mph N/A   Clear
11:15 AM 75.9 °F - 58.1 °F 54% 30.24 in 10.0 mi North 12.7 mph 19.6 mph N/A   Clear
11:35 AM 77.2 °F - 58.3 °F 52% 30.24 in 10.0 mi NNE 9.2 mph 16.1 mph N/A   Clear
11:55 AM 77.9 °F - 58.1 °F 50% 30.24 in 10.0 mi NNE 13.8 mph 18.4 mph N/A   Clear
12:15 PM 79.5 °F - 58.1 °F 48% 30.24 in 10.0 mi NNE 10.4 mph - N/A   Clear
12:35 PM 80.2 °F 80.6 °F 57.9 °F 46% 30.24 in 10.0 mi ENE 8.1 mph - N/A   Clear
12:55 PM 80.1 °F 80.5 °F 57.7 °F 46% 30.23 in 10.0 mi North 9.2 mph - N/A   Clear
1:15 PM 81.1 °F 81.2 °F 57.6 °F 44% 30.23 in 10.0 mi NE 3.5 mph 17.3 mph N/A   Clear
1:35 PM 83.3 °F 82.8 °F 57.6 °F 41% 30.22 in 10.0 mi NNE 11.5 mph - N/A   Clear
1:55 PM 83.5 °F 82.8 °F 57.0 °F 40% 30.22 in 10.0 mi NE 8.1 mph - N/A   Clear
2:15 PM 84.6 °F 83.7 °F 57.0 °F 39% 30.21 in 10.0 mi NE 12.7 mph 16.1 mph N/A   Scattered Clouds
2:35 PM 85.6 °F 84.5 °F 56.7 °F 37% 30.21 in 10.0 mi North 9.2 mph - N/A   Scattered Clouds
2:55 PM 84.9 °F 83.7 °F 56.3 °F 37% 30.20 in 10.0 mi NE 9.2 mph - N/A   Clear
3:15 PM 85.1 °F 84.1 °F 56.5 °F 38% 30.20 in 10.0 mi NNE 4.6 mph - N/A   Clear
3:35 PM 86.0 °F 84.7 °F 56.3 °F 36% 30.20 in 10.0 mi North 8.1 mph 18.4 mph N/A   Scattered Clouds
3:55 PM 86.4 °F 85.1 °F 56.3 °F 36% 30.19 in 10.0 mi NNE 10.4 mph 16.1 mph N/A   Mostly Cloudy
4:15 PM 86.7 °F 85.3 °F 56.3 °F 35% 30.19 in 10.0 mi NE 13.8 mph 17.3 mph N/A   Scattered Clouds
4:35 PM 86.9 °F 85.3 °F 55.8 °F 34% 30.19 in 10.0 mi North 9.2 mph 16.1 mph N/A   Clear
4:55 PM 86.2 °F 84.9 °F 56.1 °F 36% 30.18 in 10.0 mi NNE 12.7 mph - N/A   Clear
5:15 PM 86.9 °F 85.5 °F 55.9 °F 35% 30.17 in 10.0 mi ENE 13.8 mph 17.3 mph N/A   Clear
5:35 PM 86.7 °F 85.1 °F 55.4 °F 34% 30.17 in 10.0 mi NE 10.4 mph 17.3 mph N/A   Clear
5:55 PM 86.7 °F 85.1 °F 55.6 °F 34% 30.17 in 10.0 mi NNE 13.8 mph - N/A   Clear
6:15 PM 85.8 °F 84.5 °F 55.8 °F 36% 30.17 in 10.0 mi NNE 10.4 mph 16.1 mph N/A   Clear
6:35 PM 86.0 °F 84.7 °F 56.5 °F 36% 30.17 in 10.0 mi NNE 15.0 mph - N/A   Clear
6:55 PM 82.9 °F 82.4 °F 56.8 °F 41% 30.17 in 10.0 mi NNE 11.5 mph 16.1 mph N/A   Clear
7:15 PM 82.6 °F 82.2 °F 57.0 °F 42% 30.17 in 10.0 mi NNE 12.7 mph 18.4 mph N/A   Clear
7:35 PM 82.9 °F 82.4 °F 56.8 °F 41% 30.17 in 10.0 mi NNE 12.7 mph - N/A   Clear
7:55 PM 82.4 °F 82.0 °F 57.2 °F 42% 30.18 in 10.0 mi NE 12.7 mph - N/A   Scattered Clouds
8:35 PM 79.9 °F - 57.7 °F 47% 30.20 in 10.0 mi NNE 13.8 mph 20.7 mph N/A   Mostly Cloudy
8:55 PM 78.8 °F - 58.5 °F 50% 30.20 in 10.0 mi NNE 15.0 mph - N/A   Mostly Cloudy
9:15 PM 77.9 °F - 58.6 °F 51% 30.21 in 10.0 mi NE 11.5 mph - N/A   Mostly Cloudy
9:35 PM 76.8 °F - 59.0 °F 54% 30.22 in 10.0 mi NE 12.7 mph - N/A   Scattered Clouds
9:55 PM 76.1 °F - 59.0 °F 55% 30.23 in 10.0 mi NE 11.5 mph 16.1 mph N/A   Clear
10:15 PM 75.0 °F - 58.5 °F 56% 30.24 in 10.0 mi NE 11.5 mph 17.3 mph N/A   Clear
10:35 PM 74.3 °F - 58.3 °F 57% 30.24 in 10.0 mi NE 10.4 mph - N/A   Clear
10:55 PM 73.2 °F - 58.3 °F 59% 30.25 in 10.0 mi NE 8.1 mph - N/A   Clear
11:35 PM 71.6 °F - 58.3 °F 63% 30.24 in 10.0 mi NE 8.1 mph - N/A   Clear
11:55 PM 70.7 °F - 58.1 °F 64% 30.23 in 10.0 mi ENE 9.2 mph - N/A   Clear